Flag for U.S.A. Weather past 2 weeks in Canton, Ohio, U.S.A.

Now
75 °F

Partly sunny.


Feels Like: 78 °F
Forecast: 58 / 77 °F
Wind: 8 mph from Northwest

Location: Akron-Canton Regional Airport

Current Time: May 5, 2015 at 6:24:12 PM

Latest Report: May 5, 2015 at 4:51 PM


Visibility: 10 mi

Pressure: 30.21 "Hg

Humidity: 55%

Dew point: 58 °F

Location of CantonLocation

Historic Weather in Canton — Graph

°F

Canton temperature yesterday

Maximum temperature yesterday: 81 °F (at 1:51 PM)
Minimum temperature yesterday: 55 °F (at 5:51 AM)
Average temperature yesterday: 67 °F

Past Weeks' High & Low Weather Summary

 TemperatureHumidityPressure
High81 °F (May 4, 1:51 PM)96% (May 5, 3:51 AM)30.28 "Hg (May 5, 3:51 AM)
Low29 °F (Apr 24, 3:51 AM)23% (Apr 21, 6:51 PM)29.46 "Hg (Apr 20, 4:51 PM)
Average51 °F57%29.94 "Hg
* Reported Apr 20 4:51 PM — May 5 4:51 PM, Canton, Weather by CustomWeather, © 2015

Note: Actual official high and low records may vary slightly from our data, if they occured in-between our weather recording intervals... More about our weather records

Advertising

Canton weather history for previous 24 hours

 ConditionsComfort  
Time TempWeatherWind HumidityBarometerVisibility
4:51 PM
Tue, May 5
75 °FPartly sunny.8 mph55%30.21 "Hg10 mi
3:51 PM74 °FOvercast.7 mph57%30.23 "Hg9 mi
2:51 PM73 °FCloudy.6 mph59%30.24 "Hg10 mi
1:51 PM72 °FBroken clouds.3 mph61%30.25 "Hg7 mi
12:51 PM68 °FOvercast.5 mph73%30.27 "Hg6 mi
11:51 AM69 °FMore clouds than sun.6 mph73%30.27 "Hg3 mi
10:51 AM67 °FPartly sunny.7 mph79%30.27 "Hg3 mi
9:51 AM63 °FFog.7 mph90%30.28 "Hg3 mi
8:51 AM63 °FFog.5 mph87%30.27 "Hg3 mi
7:51 AM61 °FFog.No wind93%30.27 "Hg3 mi
6:51 AM59 °FFog.No wind93%30.25 "Hg2 mi
5:51 AM59 °FFog.No wind93%30.23 "Hg3 mi
4:51 AM58 °FFog.5 mph93%30.21 "Hg1 mi
3:51 AM57 °FFog.No wind96%30.20 "Hg1 mi
2:51 AM59 °FFog.3 mph93%30.19 "Hg1 mi
1:51 AM59 °FFog.No wind90%30.20 "Hg3 mi
12:51 AM60 °FFog.3 mph90%30.20 "Hg4 mi
11:51 PM
Mon, May 4
61 °FFog.3 mph90%30.19 "Hg6 mi
10:51 PM61 °FFog.6 mph90%30.20 "Hg6 mi
9:51 PM62 °FFog.5 mph90%30.20 "Hg6 mi
8:51 PM63 °FFog.6 mph87%30.19 "Hg6 mi
7:51 PM63 °FFog.6 mph90%30.19 "Hg5 mi
6:51 PM65 °FLight rain. More clouds than sun.12 mph81%30.19 "Hg3 mi
Weather by CustomWeather, © 2015

See weather overviewHow to use our weather pages